Regional Weather Roundup
Issued by NWS

Home | Current Version | Previous Version | Graphics & Text | Print | Product List | Glossary Off
Versions: 1 2 3 4 5 6 7 8 9 10 11 12 13 14 15 16 17 18 19 20 21 22 23 24 25 26 27 28 29 30 31 32 33 34 35 36 37 38 39 40 41 42 43 44 45 46 47 48 49 50

000
ASUS43 KMKX 280020
RWRWI

WISCONSIN REGIONAL WEATHER ROUNDUP
NATIONAL WEATHER SERVICE MILWAUKEE/SULLIVAN WI
600 PM CST FRI FEB 27 2015

NOTE: "FAIR" INDICATES FEW OR NO CLOUDS BELOW 12,000 FEET WITH NO
SIGNIFICANT WEATHER AND/OR OBSTRUCTIONS TO VISIBILITY.

WIZ001-002-006>008-014>016-023>028-280100-
NORTHWEST WISCONSIN

CITY           SKY/WX    TMP DP  RH WIND       PRES   REMARKS
SUPERIOR ARPT  CLEAR     17  -6  35 SW9       30.42S WCI   6
6HR MIN TEMP:  13; 6HR MAX TEMP:  20;

ASHLAND        CLEAR     15  -7  37 SW7       30.42S WCI   5
6HR MIN TEMP:  12; 6HR MAX TEMP:  19;

HAYWARD        CLEAR     12  -7  42 SW6       30.42S WCI   3
6HR MIN TEMP:   8; 6HR MAX TEMP:  16; 6HR PCP: TRACE;

SIREN          CLEAR     13  -4  45 SW5       30.45S WCI   6
6HR MIN TEMP:   9; 6HR MAX TEMP:  17;

CUMBERLAND     CLEAR     10  -4  52 SW7       30.43S WCI   0
RICE LAKE      CLEAR     12  -3  50 S5        30.47S WCI   4
6HR MIN TEMP:   8; 6HR MAX TEMP:  15;

CHETEK         CLEAR     11  -2  53 SW3       30.47S
6HR MIN TEMP:   9; 6HR MAX TEMP:  14;

LADYSMITH      CLEAR     11  -5  49 SW5       30.46R WCI   2
6HR MIN TEMP:  10; 6HR MAX TEMP:  15;

EAU CLAIRE     CLEAR     11  -3  53 SW7       30.50R WCI   0
6HR MIN TEMP:   7; 6HR MAX TEMP:  13;

MENOMONIE      CLEAR     12  -1  56 S7        30.51R WCI   1
6HR MIN TEMP:  11; 6HR MAX TEMP:  16;

NEW RICHMOND   CLEAR     11   0  59 SW9       30.48S WCI  -1
6HR MIN TEMP:  11; 6HR MAX TEMP:  17;

OSCEOLA        CLEAR     14  -1  50 SW6       30.50F WCI   5
6HR MIN TEMP:  13; 6HR MAX TEMP:  18;

$$

WIZ003>005-009-010-017-018-280100-
NORTH CENTRAL WISCONSIN

CITY           SKY/WX    TMP DP  RH WIND       PRES   REMARKS
MANITOWISH WTR CLEAR     11 -12  34 W5        30.35S WCI   3
6HR MIN TEMP:  10; 6HR MAX TEMP:  16;

ARBOR VITAE    CLEAR     14  -6  39 SW3       30.36R
6HR MIN TEMP:  11; 6HR MAX TEMP:  17;

WOODRUFF       CLEAR     14  -6  39 SW3       30.36R
6HR MIN TEMP:  11; 6HR MAX TEMP:  17;

RHINELANDER    CLEAR      9  -5  53 W9        30.37R WCI  -4
6HR MIN TEMP:   9; 6HR MAX TEMP:  16;

EAGLE RIVER    CLEAR     10  -8  46 SW7       30.34S WCI  -2
6HR MIN TEMP:  10; 6HR MAX TEMP:  17;

LAND O LAKES   CLEAR     13  -7  41 SW3       30.34S
6HR MIN TEMP:  13; 6HR MAX TEMP:  19;

PHILLIPS       CLEAR     10  -7  46 SW7       30.39R WCI  -1
6HR MIN TEMP:  10; 6HR MAX TEMP:  15;

TOMAHAWK       CLEAR     11  -7  44 CALM      30.40S
6HR MIN TEMP:  11; 6HR MAX TEMP:  17;

MEDFORD        CLEAR      7  -5  57 SW7       30.43R WCI  -4
6HR MIN TEMP:   7; 6HR MAX TEMP:  10;

MERRILL        CLEAR      9  -5  54 SW7       30.43S WCI  -3
6HR MIN TEMP:   9; 6HR MAX TEMP:  14;

$$

WIZ029-030-035-036-043>047-280100-
CENTRAL WISCONSIN

CITY           SKY/WX    TMP DP  RH WIND       PRES   REMARKS
WAUSAU         CLEAR     10  -4  53 W9        30.44R WCI  -3
6HR MIN TEMP:   7; 6HR MAX TEMP:  13;

MOSINEE        CLEAR     12  -2  52 W8        30.46R WCI   1
MARSHFIELD     CLEAR     10  -5  50 W7        30.45F WCI  -1
6HR MIN TEMP:   8; 6HR MAX TEMP:  14;

STEVENS POINT  CLEAR     11  -6  46 W3        30.47S
6HR MIN TEMP:   8; 6HR MAX TEMP:  14;

WAUPACA        CLEAR     16  -4  41 SW7       30.49S WCI   6
6HR MIN TEMP:  16; 6HR MAX TEMP:  21;

WAUTOMA        CLEAR     13  -5  44 W6        30.51R WCI   4
6HR MIN TEMP:  13; 6HR MAX TEMP:  18;

WISC RAPIDS    CLEAR     13  -8  39 W5        30.49S WCI   5
6HR MIN TEMP:  10; 6HR MAX TEMP:  17;

CAMP DOUGLAS   CLEAR     11  -4  52 SW8       30.51R WCI  -1
6HR MIN TEMP:  11; 6HR MAX TEMP:  17;

$$

WIZ011>013-019>022-031-037>040-048>050-280100-
NORTHEAST WISCONSIN

CITY           SKY/WX    TMP DP  RH WIND       PRES   REMARKS
ANTIGO         CLEAR      8  -4  59 W10G16    30.41R WCI  -7
6HR MIN TEMP:   7; 6HR MAX TEMP:  12;

SHAWANO        CLEAR     16  -5  40 W6        30.48S WCI   7
6HR MIN TEMP:  16; 6HR MAX TEMP:  19;

OCONTO         CLEAR     14  -4  44 SW7       30.47S WCI   4
6HR MIN TEMP:  14; 6HR MAX TEMP:  19;

STURGEON BAY   CLEAR     12  -2  52 SW9       30.49S WCI   0
6HR MIN TEMP:  12; 6HR MAX TEMP:  16;

GREEN BAY      CLEAR     15  -1  49 SW6       30.49S WCI   6
6HR MIN TEMP:  14; 6HR MAX TEMP:  19;

MANITOWOC      CLEAR     14   0  53 SW7       30.51S WCI   4
6HR MIN TEMP:  14; 6HR MAX TEMP:  18;

APPLETON       CLEAR     16  -6  38 SW10      30.48F WCI   3
CLINTONVILLE   CLEAR     14  -6  41 W6        30.48S WCI   5
OSHKOSH        CLEAR     14  -2  49 SW7       30.50S WCI   4
6HR MIN TEMP:  12; 6HR MAX TEMP:  18;

$$

WIZ032>034-041-042-053>061-280100-
SOUTHWEST WISCONSIN

CITY           SKY/WX    TMP DP  RH WIND       PRES   REMARKS
LA CROSSE      CLEAR     11  -3  53 SW12      30.55S WCI  -3
6HR MIN TEMP:  11; 6HR MAX TEMP:  17;

SPARTA         CLEAR     11  -6  46 CALM      30.54R
6HR MIN TEMP:  11; 6HR MAX TEMP:  16;

VIROQUA        CLEAR      8  -4  59 SW8       30.50R WCI  -5
6HR MIN TEMP:   8; 6HR MAX TEMP:  13;

BOSCOBEL       CLEAR     11  -6  46 SW7       30.58S WCI   0
6HR MIN TEMP:  11; 6HR MAX TEMP:  16; 6HR PCP: TRACE;

PRAIRIE DU CHI CLEAR      7  -7  51 W6        30.59S WCI  -3
6HR MIN TEMP:   7; 6HR MAX TEMP:  12;

PLATTEVILLE    CLEAR      3  -7  62 SW10      30.55S WCI -12
6HR MIN TEMP:   3; 6HR MAX TEMP:  12;

$$

WIZ056-057-062-063-064-067-068-280100-
SOUTH CENTRAL WISCONSIN

CITY           SKY/WX    TMP DP  RH WIND       PRES   REMARKS
REEDSBURG      CLEAR     13  -3  48 SW6       30.52R WCI   4
6HR MIN TEMP:  11; 6HR MAX TEMP:  16;

BARABOO/DELLS  CLEAR     12  -5  46 W5        30.51S WCI   4
6HR MIN TEMP:  11; 6HR MAX TEMP:  16;

LONE ROCK      CLEAR     10  -5  50 SW8       30.56R WCI  -2
6HR MIN TEMP:  10; 6HR MAX TEMP:  16;

MINERAL POINT  CLEAR     10  -6  48 SW3       30.53S
MADISON        CLEAR     11  -4  51 SW5       30.54R WCI   3
6HR MIN TEMP:  11; 6HR MAX TEMP:  16;

MIDDLETON      CLEAR     12  -5  45 SW8       30.54R WCI   0
6HR MIN TEMP:  12; 6HR MAX TEMP:  19;

WATERTOWN      CLEAR     10  -3  55 SW8       30.54R WCI  -1
6HR MIN TEMP:  10; 6HR MAX TEMP:  16;

MONROE         CLEAR     10  -2  56 W7        30.54S WCI   0
JANESVILLE     CLEAR     10  -6  48 W12       30.57S WCI  -4
$$

WIZ051-052-058>065-066-070>072-280100-
SOUTHEAST WISCONSIN

CITY           SKY/WX    TMP DP  RH WIND       PRES   REMARKS
MILWAUKEE      CLEAR     13  -5  44 SW9       30.56R WCI   1
6HR MIN TEMP:  13; 6HR MAX TEMP:  18;

WAUKESHA       CLEAR      9  -6  52 SW10      30.54S WCI  -6
MILWAUKEE/TIMM CLEAR     12  -6  44 SW10      30.55S WCI  -1
RACINE         CLEAR     11  -5  48 SW7       30.59R WCI   0
6HR MIN TEMP:  11; 6HR MAX TEMP:  15;

BURLINGTON     CLEAR      6  -6  58 SW6       30.57S WCI  -5
6HR MIN TEMP:   6; 6HR MAX TEMP:  13;

KENOSHA        CLEAR      6  -7  54 W7        30.57R WCI  -6
6HR MIN TEMP:   6; 6HR MAX TEMP:  14;

FOND DU LAC    CLEAR     14  -3  47 SW5       30.51S WCI   6
6HR MIN TEMP:  13; 6HR MAX TEMP:  18;

SHEBOYGAN      CLEAR     11  -1  58 SW9       30.52R WCI  -2
6HR MIN TEMP:  11; 6HR MAX TEMP:  16;

WEST BEND      CLEAR     12  -4  48 SW7       30.52R WCI   2
JUNEAU         FAIR      11  -3  52 SW7       30.53S WCI   1
6HR MIN TEMP:  11; 6HR MAX TEMP:  15;

$$

LSZ147-162-280100-
LAKE SUPERIOR

STATION/POSITION TIME  TEMP    WIND        PRES    WAVE
                       AIR SEA DIR/SP/G            HT/PER
                 (UTC) (F)     (DEG/KT/KT) (MB)    (FT/S)
DEVILS ISLAND    0000   17     230/ 14/ 17 1030.6R
PORT WING        2340   19     210/  8/ 11 1029.8S
SAXON HARBOR     2300   20     230/  4/  9 1029.8F
$$

LMZ867-665-643>646-280100-
LAKE MICHIGAN

STATION/POSITION TIME  TEMP    WIND        PRES    WAVE



USA.gov is the U.S. government's official web portal to all federal, state and local government web resources and services.